FW5801 Weather Reports


Display with metric or nautical units.
time (UTC)temp
F
wind
direction
speed
MPH
gust
MPH
rain 1hr
in
rain 24hr
in
rain mn
in
humidity
%
barometer
mb
20260906011058 74 0 0.0 4.0 0.00 0.44 0.44 89 1013.9
20260906010558 74 0 0.0 4.0 0.00 0.44 0.44 90 1013.7
20260906010106 74 0 0.0 4.0 0.00 0.44 0.44 90 1013.6
20260906005558 74 51 1.0 4.0 0.00 0.44 0.44 89 1013.5
20260906005058 74 0 0.0 2.0 0.00 0.44 0.44 89 1013.5
20260906004614 74 321 0.0 2.0 0.00 0.44 0.44 88 1013.5
20260906004102 74 0 0.0 1.0 0.00 0.44 0.44 88 1013.5
20260906003558 75 0 0.0 0.0 0.00 0.44 0.44 88 1013.4
20260906003109 75 0 0.0 0.0 0.00 0.44 0.44 87 1013.4
20260906002558 75 0 0.0 0.0 0.00 0.44 0.44 87 1013.5
20260906002101 75 0 0.0 0.0 0.00 0.44 0.44 87 1013.4
20260906001605 75 0 0.0 0.0 0.00 0.44 0.44 86 1013.4
20260906001058 76 0 0.0 1.0 0.00 0.44 0.44 86 1013.5
20260906000558 76 0 0.0 2.0 0.00 0.44 0.44 86 1013.6
20260906000110 76 0 0.0 4.0 0.00 0.44 0.44 86 1013.6
20260905235558 76 0 0.0 4.0 0.00 0.44 0.44 85 1013.5
20260905235101 77 0 1.0 4.0 0.00 0.44 0.44 85 1013.4
20260905234604 77 306 0.0 3.0 0.00 0.44 0.44 84 1013.3
20260905234058 77 304 0.0 2.0 0.00 0.44 0.44 84 1013.4
20260905233558 77 0 0.0 5.0 0.00 0.44 0.44 83 1013.4
20260905233102 78 0 1.0 5.0 0.00 0.44 0.44 83 1013.4
20260905232557 78 323 1.0 4.0 0.00 0.44 0.44 83 1013.4
20260905232101 78 302 0.0 3.0 0.00 0.44 0.44 84 1013.5
20260905231603 78 0 0.0 4.0 0.00 0.44 0.44 83 1013.6
20260905231058 78 0 0.0 4.0 0.00 0.44 0.44 83 1013.5
20260905230600 78 0 0.0 4.0 0.00 0.44 0.44 83 1013.5
20260905230109 78 360 0.0 5.0 0.00 0.44 0.44 82 1013.4
20260905225557 78 360 2.0 5.0 0.00 0.44 0.44 82 1013.3
20260905225100 79 360 2.0 5.0 0.00 0.44 0.44 81 1013.1
20260905224608 79 0 0.0 5.0 0.00 0.44 0.44 80 1013.0
20260905224057 80 0 1.0 8.0 0.00 0.44 0.44 79 1012.9
20260905223600 80 347 2.0 8.0 0.00 0.44 0.44 78 1013.2
20260905223101 81 355 4.0 9.0 0.00 0.44 0.44 76 1013.1
20260905222600 81 343 2.0 9.0 0.00 0.44 0.44 75 1012.8
20260905222100 82 101 3.0 9.0 0.00 0.44 0.44 75 1012.8
20260905221602 82 78 2.0 6.0 0.00 0.44 0.44 75 1012.6
20260905221102 81 355 2.0 9.0 0.00 0.44 0.44 76 1012.8
20260905220557 81 51 3.0 9.0 0.00 0.44 0.44 75 1012.8
20260905220118 81 350 3.0 9.0 0.00 0.44 0.44 75 1012.8
20260905215600 81 342 3.0 10.0 0.00 0.44 0.44 75 1012.8
20260905215059 81 64 2.0 10.0 0.00 0.44 0.44 75 1012.9
20260905214606 81 69 3.0 10.0 0.00 0.44 0.44 73 1013.0
20260905214100 82 346 2.0 8.0 0.00 0.44 0.44 74 1012.9
20260905213600 82 49 1.0 10.0 0.00 0.44 0.44 75 1013.1
20260905213107 82 349 2.0 10.0 0.00 0.44 0.44 75 1013.0
20260905212600 82 59 2.0 8.0 0.00 0.44 0.44 75 1012.9
20260905212057 82 355 1.0 9.0 0.00 0.44 0.44 75 1012.9
20260905211611 82 74 3.0 10.0 0.00 0.44 0.44 75 1013.0
20260905211100 82 53 3.0 10.0 0.00 0.44 0.44 76 1013.0
20260905210600 82 69 3.0 10.0 0.00 0.44 0.44 76 1012.9
20260905210112 82 68 2.0 8.0 0.00 0.44 0.44 75 1013.0
20260905205600 82 355 1.0 8.0 0.00 0.44 0.44 75 1013.0
20260905205100 82 0 1.0 6.0 0.00 0.44 0.44 75 1012.8
20260905204601 82 56 3.0 8.0 0.00 0.44 0.44 75 1012.9
20260905204102 82 352 1.0 8.0 0.00 0.44 0.44 77 1012.9
20260905203600 83 355 2.0 9.0 0.00 0.44 0.44 75 1013.0
20260905203104 83 59 1.0 9.0 0.00 0.44 0.44 74 1013.0
20260905202600 83 349 3.0 10.0 0.00 0.44 0.44 74 1013.0
20260905202059 83 71 4.0 10.0 0.00 0.44 0.44 75 1013.1
20260905201605 83 355 4.0 10.0 0.00 0.44 0.44 74 1013.3
20260905201059 83 0 1.0 4.0 0.00 0.44 0.44 77 1013.4
20260905200557 82 61 0.0 4.0 0.00 0.44 0.44 77 1013.3
20260905200106 82 306 0.0 8.0 0.00 0.44 0.44 77 1013.4
20260905195600 81 46 2.0 8.0 0.00 0.44 0.44 77 1013.6
20260905195100 81 350 2.0 6.0 0.00 0.44 0.44 78 1013.7
20260905194604 81 350 2.0 6.0 0.00 0.44 0.44 77 1013.8
20260905194058 81 0 3.0 8.0 0.00 0.44 0.44 77 1013.9
20260905193557 81 355 1.0 8.0 0.00 0.44 0.44 76 1014.0
20260905193107 82 75 1.0 7.0 0.00 0.44 0.44 76 1014.0
20260905192558 82 0 1.0 6.0 0.00 0.44 0.44 76 1014.1
20260905192100 82 35 2.0 6.0 0.00 0.44 0.44 75 1014.1
20260905191618 82 360 2.0 5.0 0.00 0.44 0.44 76 1014.2
20260905191057 82 0 2.0 6.0 0.00 0.44 0.44 76 1014.3
20260905190601 82 338 2.0 7.0 0.00 0.44 0.44 76 1014.3
20260905190114 82 360 3.0 9.0 0.00 0.44 0.44 76 1014.3
20260905185559 82 0 2.0 9.0 0.00 0.44 0.44 75 1014.3
20260905185058 83 57 2.0 8.0 0.00 0.44 0.44 75 1014.2
20260905184605 82 90 1.0 8.0 0.00 0.44 0.44 75 1014.3
20260905184058 82 59 1.0 8.0 0.00 0.44 0.44 76 1014.2
20260905183603 83 71 3.0 8.0 0.00 0.44 0.44 75 1014.4
20260905183125 83 77 2.0 10.0 0.00 0.44 0.44 75 1014.4
20260905182559 83 355 3.0 10.0 0.00 0.44 0.44 75 1014.4
20260905182100 83 47 1.0 6.0 0.00 0.44 0.44 76 1014.4
20260905181605 82 350 0.0 8.0 0.00 0.44 0.44 77 1014.4
20260905181103 82 349 0.0 8.0 0.00 0.44 0.44 78 1014.5
20260905180559 82 344 2.0 8.0 0.00 0.44 0.44 75 1014.4
20260905180107 81 24 2.0 8.0 0.00 0.44 0.44 78 1014.5
20260905175558 81 313 4.0 8.0 0.00 0.44 0.44 79 1014.5
20260905175058 80 346 0.0 5.0 0.00 0.44 0.44 80 1014.5
20260905174606 80 0 2.0 8.0 0.00 0.44 0.44 77 1014.4
20260905174058 80 0 2.0 9.0 0.00 0.44 0.44 79 1014.4
20260905173559 79 342 3.0 9.0 0.00 0.44 0.44 78 1014.6
20260905173106 79 360 2.0 9.0 0.00 0.44 0.44 79 1014.6
20260905172600 79 331 3.0 9.0 0.00 0.44 0.44 78 1014.7
20260905172059 79 344 4.0 9.0 0.00 0.44 0.44 77 1014.7
20260905171605 79 355 2.0 9.0 0.00 0.44 0.44 79 1014.7
20260905171058 79 288 5.0 8.0 0.00 0.44 0.44 78 1014.7
20260905170559 79 334 3.0 8.0 0.00 0.44 0.44 78 1014.8
20260905170104 79 338 3.0 8.0 0.00 0.44 0.44 78 1014.8
20260905165602 79 291 3.0 10.0 0.00 0.44 0.44 77 1014.8
20260905165059 79 326 3.0 10.0 0.00 0.44 0.44 78 1014.9
20260905164609 79 276 4.0 9.0 0.00 0.44 0.44 77 1015.1
20260905164059 79 336 3.0 9.0 0.00 0.44 0.44 77 1015.0
20260905163557 78 0 3.0 9.0 0.00 0.44 0.44 77 1014.7
20260905163112 78 331 3.0 9.0 0.00 0.44 0.44 76 1014.7
20260905162600 79 330 3.0 8.0 0.00 0.44 0.44 76 1014.8
20260905162100 79 335 3.0 8.0 0.00 0.44 0.44 76 1014.8
20260905161605 79 317 3.0 8.0 0.00 0.44 0.44 75 1014.6
20260905161058 79 337 4.0 8.0 0.00 0.44 0.44 74 1014.6
20260905160559 79 319 3.0 8.0 0.00 0.44 0.44 74 1014.6
20260905160124 80 328 2.0 7.0 0.00 0.44 0.44 73 1014.5
20260905155557 80 315 3.0 9.0 0.00 0.44 0.44 71 1014.6
20260905155057 80 360 3.0 9.0 0.00 0.44 0.44 72 1014.5
20260905154608 80 327 4.0 9.0 0.00 0.44 0.44 71 1014.5
20260905154057 80 355 4.0 6.0 0.00 0.44 0.44 70 1014.5
20260905153600 80 328 2.0 5.0 0.00 0.44 0.44 73 1014.2
20260905153112 79 0 1.0 5.0 0.00 0.44 0.44 75 1014.3
20260905152558 78 299 1.0 5.0 0.00 0.44 0.44 77 1014.4
20260905152101 77 317 2.0 6.0 0.00 0.44 0.44 78 1014.4
20260905151610 76 317 1.0 6.0 0.00 0.44 0.44 81 1014.4
20260905151058 75 0 0.0 0.0 0.00 0.44 0.44 85 1014.3
20260905150557 74 0 0.0 0.0 0.00 0.44 0.44 88 1014.4
20260905150104 73 0 0.0 0.0 0.00 0.44 0.44 90 1014.1
20260905145600 73 0 0.0 0.0 0.00 0.44 0.44 91 1014.2
20260905145102 72 0 0.0 0.0 0.00 0.44 0.44 92 1014.1
20260905144609 71 0 0.0 0.0 0.00 0.44 0.44 92 1014.0
20260905144059 71 0 0.0 0.0 0.00 0.44 0.44 92 1014.0
20260905143559 70 0 0.0 0.0 0.00 0.44 0.44 92 1014.1
20260905143109 70 0 0.0 0.0 0.00 0.44 0.44 92 1014.2
20260905142600 70 0 0.0 1.0 0.00 0.44 0.44 93 1014.1
20260905142100 70 0 0.0 2.0 0.00 0.44 0.44 93 1014.0
20260905141604 69 0 0.0 2.0 0.00 0.44 0.44 93 1013.8
20260905141059 69 0 0.0 2.0 0.00 0.44 0.44 93 1014.0
20260905140600 69 0 0.0 2.0 0.00 0.44 0.44 93 1014.0
20260905140111 69 0 0.0 0.0 0.00 0.44 0.44 93 1013.7
20260905135559 68 0 0.0 0.0 0.00 0.44 0.44 93 1013.6
20260905135100 68 0 0.0 0.0 0.00 0.44 0.44 93 1013.8
20260905134605 68 0 0.0 0.0 0.00 0.44 0.44 93 1014.0
20260905134057 68 0 0.0 0.0 0.01 0.44 0.44 93 1014.1
20260905133557 68 0 0.0 0.0 0.01 0.44 0.44 93 1014.2
20260905133108 68 0 0.0 0.0 0.01 0.44 0.44 93 1014.3
20260905132558 68 0 0.0 0.0 0.01 0.44 0.44 93 1014.3
20260905132058 67 0 0.0 0.0 0.01 0.44 0.44 93 1014.4
20260905131611 67 0 0.0 1.0 0.01 0.44 0.44 93 1014.5
20260905131056 67 0 0.0 2.0 0.02 0.44 0.44 93 1014.6
20260905130600 67 0 0.0 7.0 0.03 0.44 0.44 93 1014.8
20260905130115 67 0 1.0 7.0 0.03 0.44 0.44 92 1014.6
20260905125557 67 177 2.0 7.0 0.05 0.44 0.44 93 1014.3
20260905125057 67 196 2.0 5.0 0.05 0.44 0.44 93 1014.5
20260905124605 67 211 1.0 8.0 0.06 0.44 0.44 93 1014.8
20260905124057 67 213 2.0 8.0 0.06 0.43 0.43 93 1014.8
20260905123557 67 240 4.0 8.0 0.08 0.43 0.43 92 1015.1
20260905123107 67 225 3.0 9.0 0.09 0.43 0.43 92 1014.8
20260905122557 67 213 4.0 9.0 0.10 0.43 0.43 92 1014.6
20260905122057 67 184 4.0 8.0 0.11 0.43 0.43 92 1014.9
20260905121604 67 215 3.0 7.0 0.11 0.43 0.43 92 1015.2
20260905121057 68 216 2.0 6.0 0.11 0.42 0.42 92 1015.5
20260905120600 68 246 2.0 4.0 0.10 0.41 0.41 93 1015.6
20260905120114 68 196 0.0 4.0 0.09 0.40 0.40 92 1015.3
20260905115601 68 0 0.0 2.0 0.09 0.39 0.39 92 1015.6
20260905115057 68 0 0.0 2.0 0.09 0.39 0.39 92 1015.6
20260905114602 68 0 0.0 1.0 0.09 0.38 0.38 92 1015.8
20260905114057 68 0 0.0 0.0 0.09 0.37 0.37 92 1015.8
20260905113557 68 0 0.0 3.0 0.08 0.35 0.35 92 1016.0
20260905113104 68 0 0.0 3.0 0.07 0.34 0.34 92 1015.7
20260905112558 68 0 0.0 5.0 0.07 0.33 0.33 91 1015.7
20260905112058 68 0 0.0 5.0 0.07 0.32 0.32 91 1015.7
20260905111611 68 350 1.0 10.0 0.07 0.32 0.32 92 1015.9
20260905111058 68 0 1.0 10.0 0.07 0.31 0.31 92 1015.7
20260905110601 68 50 1.0 6.0 0.08 0.31 0.31 92 1015.7
20260905110223 68 0 2.0 8.0 0.08 0.31 0.31 92 1015.8
20260905105107 68 332 3.0 14.0 0.08 0.30 0.30 91 1016.0
20260905104607 68 36 6.0 17.0 0.07 0.29 0.29 91 1016.0
20260905104103 68 355 9.0 17.0 0.07 0.28 0.28 91 1016.0
20260905103557 68 341 10.0 15.0 0.06 0.27 0.27 92 1016.1
20260905103105 68 28 10.0 15.0 0.07 0.27 0.27 92 1016.1
20260905102556 68 346 7.0 15.0 0.08 0.26 0.26 92 1016.4
20260905102350 68 350 7.0 18.0 0.17 0.25 0.25 92 1016.3
20260905100105 68 333 6.0 12.0 0.17 0.23 0.23 92 1015.9
20260905095600 68 360 6.0 17.0 0.16 0.22 0.22 92 1015.9
20260905095057 68 342 5.0 17.0 0.16 0.22 0.22 92 1016.0
20260905094609 68 32 9.0 20.0 0.16 0.22 0.22 92 1016.0
20260905094058 68 355 11.0 20.0 0.15 0.21 0.21 91 1016.0
20260905093558 68 355 12.0 18.0 0.15 0.21 0.21 91 1015.9
20260905093109 69 355 9.0 19.0 0.14 0.20 0.20 91 1015.8
20260905092558 69 342 9.0 22.0 0.12 0.18 0.18 90 1015.5
20260905092059 69 355 11.0 22.0 0.02 0.08 0.08 90 1016.0
20260905091609 70 49 11.0 22.0 0.01 0.07 0.07 90 1015.9
20260905091058 70 355 12.0 22.0 0.01 0.07 0.07 91 1015.4
20260905090557 70 344 4.0 14.0 0.00 0.06 0.06 92 1015.8
20260905090118 70 0 0.0 0.0 0.00 0.06 0.06 91 1013.9
20260905085558 70 0 0.0 0.0 0.00 0.06 0.06 91 1014.1
20260905085058 70 0 0.0 0.0 0.00 0.06 0.06 91 1014.1
20260905084619 70 0 0.0 2.0 0.00 0.06 0.06 91 1014.1
20260905084057 70 0 0.0 3.0 0.00 0.06 0.06 91 1014.0
20260905083557 70 0 0.0 3.0 0.00 0.06 0.06 91 1014.1
20260905083102 70 114 0.0 5.0 0.00 0.06 0.06 91 1013.9
20260905082557 70 0 0.0 9.0 0.00 0.06 0.06 91 1014.0
20260905082057 71 59 2.0 11.0 0.00 0.06 0.06 90 1014.0
20260905081603 71 340 3.0 13.0 0.00 0.06 0.06 90 1014.4
20260905081057 71 40 6.0 14.0 0.00 0.06 0.06 90 1014.4
20260905080557 71 62 6.0 14.0 0.00 0.06 0.06 90 1014.6
20260905080105 72 348 5.0 11.0 0.00 0.06 0.06 91 1014.6
20260905075559 72 355 5.0 10.0 0.00 0.06 0.06 92 1014.6
20260905075058 72 40 3.0 10.0 0.00 0.06 0.06 92 1014.5
20260905074606 72 42 0.0 9.0 0.03 0.06 0.06 92 1014.1
20260905074058 72 0 0.0 9.0 0.06 0.06 0.06 92 1013.9
20260905073557 72 352 4.0 9.0 0.06 0.06 0.06 91 1014.0
20260905073107 72 345 1.0 4.0 0.06 0.06 0.06 91 1013.9
20260905072558 72 0 0.0 1.0 0.06 0.06 0.06 92 1013.9
20260905072057 72 0 0.0 1.0 0.06 0.06 0.06 92 1013.6
20260905071602 72 0 0.0 0.0 0.06 0.06 0.06 92 1013.7
20260905071101 72 0 0.0 0.0 0.06 0.06 0.06 91 1013.8
20260905070558 72 0 0.0 2.0 0.06 0.06 0.06 91 1013.6
20260905070106 72 0 0.0 3.0 0.06 0.06 0.06 91 1013.9
20260905065557 72 0 0.0 3.0 0.06 0.06 0.06 91 1013.6
20260905065057 72 0 0.0 4.0 0.06 0.06 0.06 90 1013.5
20260905064101 72 244 2.0 4.0 0.00 0.00 0.00 90 1013.6
20260905063559 72 69 0.0 1.0 0.00 0.00 0.00 90 1013.8
20260905063113 72 0 0.0 0.0 0.00 0.00 0.00 91 1013.6
20260905062602 72 0 0.0 0.0 0.00 0.00 0.00 91 1013.7
20260905062100 72 0 0.0 0.0 0.00 0.00 0.00 91 1013.9
20260905061610 72 0 0.0 0.0 0.00 0.00 0.00 92 1013.9
20260905061057 72 0 0.0 0.0 0.00 0.00 0.00 92 1013.7
20260905060601 72 0 0.0 0.0 0.00 0.00 0.00 92 1013.8
20260905060113 72 0 0.0 0.0 0.00 0.00 0.00 92 1014.1
20260905055557 72 0 0.0 0.0 0.00 0.00 0.00 92 1014.4
20260905055100 72 0 0.0 0.0 0.00 0.00 0.00 92 1014.3
20260905054603 72 0 0.0 0.0 0.00 0.00 0.00 92 1014.5
20260905054056 72 0 0.0 0.0 0.00 0.00 0.00 92 1014.6
20260905053557 72 0 0.0 0.0 0.00 0.00 0.00 92 1014.8
20260905053142 72 0 0.0 0.0 0.00 0.00 0.00 92 1014.7
20260905052601 72 0 0.0 0.0 0.00 0.00 0.00 92 1014.7
20260905052057 72 0 0.0 0.0 0.00 0.00 0.00 92 1014.7
20260905051603 72 0 0.0 0.0 0.00 0.00 0.00 92 1014.9
20260905051057 72 0 0.0 0.0 0.00 0.00 0.00 92 1015.0
20260905050557 72 0 0.0 2.0 0.00 0.00 0.00 92 1015.0
20260905050105 72 0 0.0 2.0 0.00 0.00 0.00 92 1015.2
20260905045601 72 0 0.0 3.0 0.00 0.00 0.00 92 1015.3
20260905045057 71 70 0.0 3.0 0.00 0.00 0.00 92 1015.2
20260905044605 71 70 0.0 2.0 0.00 0.00 0.00 91 1015.2
20260905044057 71 0 0.0 0.0 0.00 0.00 0.00 91 1015.3
20260905043557 71 0 0.0 0.0 0.00 0.00 0.00 91 1015.2
20260905043111 71 0 0.0 0.0 0.00 0.00 0.00 91 1015.4
20260905042557 71 0 0.0 0.0 0.00 0.00 0.00 91 1015.4
20260905042100 72 0 0.0 0.0 0.00 0.00 0.00 91 1015.5
20260905041608 72 0 0.0 0.0 0.00 0.00 0.00 91 1015.4
20260905041058 72 0 0.0 1.0 0.00 0.00 0.00 91 1015.4
20260905040600 72 0 0.0 1.0 0.00 0.00 0.00 91 1015.5
20260905040106 72 0 0.0 1.0 0.00 0.00 0.00 91 1015.4
20260905035559 72 0 0.0 0.0 0.00 0.00 0.00 90 1015.5
20260905035058 72 0 0.0 0.0 0.00 0.00 0.00 90 1015.5
20260905034603 72 0 0.0 0.0 0.00 0.00 0.00 90 1015.5
20260905034059 72 0 0.0 1.0 0.00 0.00 0.00 89 1015.4
20260905033602 72 0 0.0 1.0 0.00 0.00 0.00 90 1015.4
20260905033106 72 0 0.0 0.0 0.00 0.00 0.00 90 1015.4
20260905032559 73 0 0.0 0.0 0.00 0.00 0.00 90 1015.2
20260905032101 73 0 0.0 0.0 0.00 0.00 0.00 90 1015.5
20260905031606 73 0 0.0 0.0 0.00 0.00 0.00 90 1015.4
20260905031057 73 0 0.0 0.0 0.00 0.00 0.00 90 1015.4
20260905030559 73 0 0.0 0.0 0.00 0.00 0.00 90 1015.5
20260905025558 73 0 0.0 0.0 0.00 0.00 0.00 89 1015.4
20260905025057 73 0 0.0 0.0 0.00 0.00 0.00 89 1015.4
20260905024623 73 0 0.0 0.0 0.00 0.00 0.00 89 1015.5
20260905024057 74 0 0.0 0.0 0.00 0.00 0.00 89 1015.5
20260905023602 74 0 0.0 0.0 0.00 0.00 0.00 89 1015.5
20260905023122 74 0 0.0 0.0 0.00 0.00 0.00 89 1015.4
20260905022559 74 0 0.0 0.0 0.00 0.00 0.00 89 1015.3
20260905022059 74 0 0.0 0.0 0.00 0.00 0.00 89 1015.3
20260905021614 74 0 0.0 0.0 0.00 0.00 0.00 88 1015.2
20260905021058 74 0 0.0 0.0 0.00 0.00 0.00 88 1015.3
20260905020558 74 0 0.0 0.0 0.00 0.00 0.00 88 1015.2
20260905020110 74 0 0.0 0.0 0.00 0.00 0.00 88 1015.3
20260905015602 74 0 0.0 0.0 0.00 0.00 0.00 87 1015.3
20260905015100 74 0 0.0 0.0 0.00 0.00 0.00 87 1015.2
20260905014616 74 0 0.0 0.0 0.00 0.00 0.00 87 1015.2
20260905014100 75 0 0.0 1.0 0.00 0.00 0.00 87 1015.3
20260905013600 75 0 0.0 1.0 0.00 0.00 0.00 87 1015.0
20260905013104 75 0 0.0 1.0 0.00 0.00 0.00 86 1015.3
20260905012558 75 0 0.0 1.0 0.00 0.00 0.00 85 1015.3
20260905012058 75 0 0.0 1.0 0.00 0.00 0.00 85 1015.3
20260905011622 75 0 0.0 0.0 0.00 0.00 0.00 85 1015.2